Theta_e
289 288 288 288 288 288 287 288 288 288 288 288 288 287 287 286 286 286 285 285 284 284 284 283 283 283 283 283 282 281 280 280 277 279 279 279 279 279 279 279 279 279 279
289 289 288 288 288 287 287 288 288 288 288 288 288 287 287 287 287 286 285 285 284 284 284 284 283 284 283 282 281 281 280 280 279 277 278 277 277 278 277 277 279 279 278
289 289 289 288 288 288 288 288 288 288 288 288 288 287 287 287 287 286 286 285 285 285 285 284 284 283 283 283 281 280 280 280 278 277 276 276 276 276 276 276 276 276 278
288 288 288 288 289 289 289 288 288 288 288 288 288 288 287 287 287 287 286 286 285 285 285 285 284 284 283 282 281 280 279 278 276 275 274 274 274 276 275 273 274 275 274
288 287 288 289 289 289 289 289 288 288 288 288 287 287 288 287 287 286 286 285 285 285 285 285 285 285 285 284 282 279 277 276 275 274 273 273 274 273 273 274 272 272 272
287 287 288 289 289 288 288 288 288 288 287 287 286 287 286 287 289 289 288 285 285 284 284 284 284 283 283 286 285 283 280 276 275 274 274 273 272 273 272 271 270 268 266
286 286 287 287 287 286 287 287 287 287 287 286 286 286 286 286 289 289 289 286 285 284 284 283 283 283 282 282 284 283 283 282 281 275 271 272 270 272 272 270 269 268 266
285 286 286 285 285 286 286 285 286 286 286 286 286 286 286 286 289 289 288 286 285 284 284 284 282 281 280 279 277 277 276 276 276 276 272 273 273 273 272 271 269 266 266
286 286 286 286 285 285 285 285 286 285 285 286 286 286 285 286 288 289 288 286 285 283 283 283 282 279 281 281 276 275 275 274 277 277 277 277 276 275 274 269 262 262 260
286 286 286 285 284 284 284 284 285 285 285 286 285 286 286 285 288 289 288 286 284 282 281 279 280 278 282 281 276 274 270 271 272 271 270 269 269 267 270 267 265 261 260
285 284 283 283 283 283 283 284 283 283 283 284 284 284 284 285 285 288 289 285 283 279 277 276 277 280 280 280 278 273 272 272 270 264 260 259 260 260 263 264 264 263 260
284 281 281 282 282 283 280 281 281 281 280 281 281 281 281 282 284 287 289 289 284 279 276 276 277 280 279 279 277 276 275 270 261 255 255 255 257 258 260 260 261 262 263
283 280 281 282 282 282 280 280 279 279 279 279 278 278 276 277 281 286 288 285 283 277 276 276 279 279 278 276 275 272 267 263 258 254 254 256 257 259 259 257 257 258 259
280 280 281 281 281 281 279 280 279 279 278 278 277 276 273 276 280 283 280 280 279 276 277 276 276 273 271 269 268 268 264 262 259 255 254 256 255 253 255 257 257 258 258
282 282 281 280 280 279 279 279 279 280 280 280 278 278 272 274 277 279 277 274 272 272 271 269 266 264 263 263 263 262 261 257 254 253 251 252 255 256 257 257 257 257 256
280 280 281 281 280 278 276 277 280 283 283 283 283 278 275 278 279 280 278 276 276 274 267 265 263 263 262 261 260 258 257 256 253 252 250 251 252 255 256 257 257 256 255
279 279 280 280 279 278 276 275 275 274 282 282 283 279 277 277 280 279 278 277 276 271 264 264 262 262 261 260 258 258 255 256 253 250 249 250 252 255 255 255 255 255 255
279 279 280 280 280 278 276 274 274 273 274 275 280 277 278 279 279 278 278 275 266 265 263 262 261 260 259 257 256 254 252 250 248 249 249 250 251 254 254 254 255 255 255
278 279 280 281 280 277 275 273 273 272 272 272 273 276 278 279 278 275 271 263 261 260 259 258 258 257 255 254 252 249 248 247 247 246 247 250 252 252 254 254 255 255 256
279 280 282 282 277 273 272 270 269 270 271 270 270 271 271 266 261 260 261 261 260 259 258 257 255 252 251 249 246 245 244 244 245 246 249 250 253 253 254 254 255 255 255
282 281 278 273 272 270 269 267 267 265 263 261 263 266 268 261 259 259 258 258 258 257 256 255 252 250 246 244 243 242 242 247 247 248 250 252 252 252 254 254 255 255 255
279 273 270 268 267 266 265 264 263 262 263 264 266 267 266 260 259 258 257 256 255 254 254 251 249 246 244 243 243 242 244 246 247 247 250 251 252 253 254 254 254 255 255
270 268 267 265 265 264 263 262 262 262 262 262 260 258 258 257 257 256 255 253 252 250 248 247 244 243 241 241 242 245 246 249 250 248 251 252 253 253 254 254 254 254 254
267 265 264 263 263 262 262 261 261 260 259 259 258 257 256 255 255 253 251 249 248 245 243 242 241 242 243 245 245 246 247 250 251 251 250 252 252 253 254 254 254 254 254
265 264 263 262 262 261 260 260 259 259 258 257 256 255 254 253 251 249 247 245 243 241 241 241 240 242 245 246 247 247 248 252 252 253 253 253 253 253 253 253 253 254 255
264 263 262 262 261 260 259 259 258 258 256 256 255 253 252 250 248 246 243 242 241 240 241 241 242 244 246 247 247 250 254 258 257 257 256 254 254 254 255 256 257 258 261
Wind_Speed
14 15 15 16 17 16 16 18 18 17 16 18 17 17 18 18 17 16 16 15 15 14 13 11 14 10 9 7 6 6 7 7 9 7 5 4 4 4 5 4 5 6 8
14 13 15 15 16 16 18 19 19 19 18 18 19 17 19 20 18 19 19 17 17 17 16 14 15 9 12 9 8 10 8 7 7 12 5 4 5 4 4 6 7 8 9
11 12 13 15 16 19 19 19 19 19 19 19 19 20 20 20 20 21 21 20 19 19 17 16 17 13 13 10 10 9 7 6 5 5 5 3 4 3 5 7 8 8 8
8 9 12 15 17 18 18 18 18 19 19 20 21 22 21 21 21 21 20 20 20 18 18 18 17 16 16 13 11 11 8 6 4 3 3 4 4 4 4 7 7 6 9
7 8 12 15 15 16 17 17 18 18 19 20 20 20 20 20 17 21 21 21 20 19 18 17 17 18 21 17 10 9 7 5 4 4 5 5 6 5 7 4 9 9 9
8 9 11 11 11 13 15 16 16 18 18 18 20 20 21 17 28 31 25 19 20 20 18 17 16 16 17 21 19 16 11 7 6 5 5 6 7 6 4 6 9 10 10
9 11 11 11 11 12 12 12 15 17 16 18 19 20 21 22 30 31 32 19 18 19 19 16 13 10 13 12 17 15 14 15 13 5 5 5 4 4 6 9 8 8 11
12 13 12 10 10 13 12 13 16 14 15 17 18 19 20 20 29 31 31 22 19 18 18 17 15 13 13 12 9 7 6 4 4 4 3 3 5 6 6 6 9 9 9
15 14 13 13 12 13 13 14 14 12 14 17 16 19 21 21 27 29 23 19 20 17 15 15 14 13 19 20 11 9 7 5 6 9 9 12 14 14 13 8 4 7 9
16 14 12 13 12 14 15 14 13 11 14 12 16 18 22 22 26 26 24 15 17 11 10 10 18 14 23 20 10 8 7 5 5 4 2 3 6 7 13 6 5 6 7
17 12 11 13 12 13 13 13 12 11 11 13 14 14 16 17 17 26 30 17 12 11 11 10 9 21 20 18 14 7 6 6 4 4 2 2 2 2 3 3 5 6 8
16 12 13 13 11 10 9 13 12 11 11 13 10 10 8 11 17 23 29 27 19 13 11 9 10 21 19 17 10 10 9 7 3 3 1 2 2 3 4 4 6 8 9
15 13 14 14 14 13 11 13 10 9 10 11 8 8 7 4 7 20 24 21 21 11 9 15 21 20 18 10 9 6 6 3 3 2 2 2 3 4 5 4 5 7 10
14 16 15 14 16 13 8 8 9 10 9 9 7 8 5 6 8 8 9 11 19 14 21 13 14 13 13 8 4 3 3 3 3 3 2 3 2 2 4 3 5 7 9
17 16 16 13 14 13 11 9 9 12 11 9 9 8 9 8 8 13 16 12 10 12 14 8 7 6 5 4 3 3 2 2 2 2 1 2 3 3 7 5 5 7 9
18 16 15 13 12 10 10 11 17 23 20 22 16 10 6 10 17 22 25 24 24 25 7 8 6 5 5 5 4 3 2 3 3 2 2 3 3 4 7 7 7 7 10
18 18 15 15 12 11 10 10 11 7 17 17 15 16 17 18 25 25 25 24 24 14 6 6 6 6 4 4 3 3 3 2 2 2 3 3 2 5 7 8 8 8 9
20 24 15 15 13 11 10 10 7 6 5 2 12 14 19 26 26 26 26 23 9 6 4 5 5 5 4 3 3 2 2 2 2 3 3 2 3 6 7 8 8 9 9
17 16 16 15 11 11 8 6 4 6 6 8 7 12 17 26 24 24 20 7 7 5 4 4 4 3 3 3 3 2 2 3 3 2 3 4 5 5 8 8 9 12 13
17 23 20 13 5 4 5 6 7 8 9 7 8 9 8 11 9 7 6 6 6 5 4 4 3 3 3 3 2 2 2 3 3 3 5 4 6 6 8 9 9 10 11
10 12 13 1 5 6 7 8 8 8 9 9 8 10 16 9 7 7 6 5 5 4 4 3 3 2 2 1 2 2 3 4 4 5 5 6 6 7 7 8 10 11 12
12 1 4 6 8 9 9 9 10 11 10 10 9 10 17 7 6 6 5 5 4 3 3 3 2 2 3 3 4 4 4 5 4 4 6 7 6 7 8 9 11 11 12
4 7 8 8 9 13 11 10 10 10 9 8 8 7 5 5 5 5 5 4 3 3 2 2 2 2 3 4 4 4 5 6 6 5 7 7 7 8 9 10 12 12 12
8 9 10 10 9 10 10 10 10 12 10 8 7 5 5 5 5 5 4 3 3 1 1 0 2 4 4 4 4 5 6 7 6 7 7 8 9 11 10 11 12 16 15
9 10 10 10 10 10 11 11 10 9 8 7 6 5 5 5 4 3 2 2 2 2 3 3 3 5 8 10 9 9 10 15 11 10 7 10 14 16 14 12 15 15 18
10 11 10 9 10 10 10 10 9 8 7 6 5 5 4 4 3 3 2 2 2 3 4 3 5 9 9 8 10 12 13 14 13 15 11 11 12 12 12 16 22 15 19
Wind_Direction
234 231 232 233 231 229 230 232 231 231 220 220 214 211 210 209 208 208 213 211 209 216 218 209 221 211 221 215 205 207 215 206 240 257 232 231 241 251 274 270 273 273 283
239 234 233 235 236 234 232 232 231 231 228 223 224 216 212 211 206 208 211 211 211 214 215 214 222 212 222 213 206 215 215 211 232 256 257 225 234 246 247 276 283 286 283
245 239 236 235 234 238 237 236 234 234 232 228 224 224 221 215 211 210 210 210 211 214 212 210 217 208 216 215 210 213 215 219 216 236 260 207 243 256 280 278 277 283 281
250 243 240 239 236 238 241 241 239 235 235 233 229 229 225 221 218 213 213 216 216 214 213 211 212 210 214 211 208 208 196 191 184 213 244 263 259 271 263 284 288 293 296
277 252 245 249 246 245 242 241 239 236 235 233 235 235 234 228 221 216 212 214 217 218 214 211 213 211 211 205 201 193 172 171 179 216 247 263 268 284 287 307 294 298 293
298 286 286 280 257 243 244 242 240 237 235 233 234 234 231 231 228 221 215 216 215 218 218 214 211 203 199 198 194 180 184 185 196 207 235 245 272 284 305 296 293 299 307
290 286 284 278 269 258 248 251 245 239 236 233 234 232 235 233 229 225 220 219 219 216 214 212 204 201 181 182 196 202 216 220 224 181 206 241 268 277 281 290 291 293 291
283 285 283 277 274 270 260 236 236 236 236 234 232 232 234 236 229 225 221 217 224 221 214 207 196 182 174 164 162 170 172 186 218 253 215 208 229 244 268 301 306 300 289
283 284 285 276 275 276 268 257 253 250 235 229 229 226 223 232 226 224 217 216 222 222 212 195 182 167 166 167 159 170 179 193 226 252 262 280 294 305 312 312 298 304 300
264 259 259 265 267 272 273 270 266 249 243 241 241 230 223 226 219 215 208 212 216 203 199 168 160 158 168 177 162 165 176 190 186 220 247 307 319 303 308 304 287 281 288
271 267 258 263 263 261 268 267 267 259 252 249 246 243 237 232 221 208 208 209 202 184 179 162 156 160 167 177 173 165 176 174 214 132 175 247 274 270 270 246 251 268 279
277 263 268 272 268 270 253 268 261 250 245 245 240 241 242 230 212 211 208 203 187 179 172 157 154 163 170 176 174 173 202 126 127 125 127 279 251 258 262 243 248 257 258
283 280 279 278 273 268 267 273 276 257 244 251 228 212 213 215 206 203 202 177 174 153 149 151 156 160 163 165 168 165 107 123 130 113 232 229 208 237 272 262 256 254 264
279 279 286 285 278 270 263 262 260 258 247 242 224 220 199 197 193 181 150 152 145 138 144 142 142 124 118 124 107 130 133 148 165 194 216 238 256 295 270 244 283 295 286
289 287 286 281 279 280 269 255 247 250 231 234 227 208 181 195 189 162 143 136 133 138 126 113 110 108 121 132 137 155 160 140 179 212 220 265 267 260 284 291 275 282 274
288 287 285 281 280 274 272 276 246 250 248 240 233 193 194 184 172 152 140 138 144 141 119 131 127 137 151 157 159 167 168 194 224 210 236 226 237 277 288 289 279 271 277
281 280 281 278 275 270 263 255 266 258 245 235 211 177 173 168 168 154 144 145 145 128 120 127 136 150 150 153 153 162 190 207 191 220 230 237 244 273 279 280 279 274 276
280 278 275 273 267 264 250 240 224 203 189 126 156 158 175 168 158 150 147 128 108 94 111 134 140 137 137 139 152 175 210 236 232 241 247 239 241 257 274 271 271 277 284
279 276 272 270 263 248 234 204 169 126 128 122 141 168 159 148 138 112 101 97 113 116 121 120 124 123 132 153 173 186 201 242 240 255 253 239 251 243 267 271 275 283 284
277 270 270 268 256 164 146 123 118 119 113 103 98 101 97 85 88 80 84 101 110 115 122 125 127 131 149 164 185 211 260 273 265 243 247 244 259 254 269 276 282 286 283
292 303 304 136 116 107 112 117 108 93 87 81 77 93 100 100 101 103 102 97 107 112 117 123 130 136 146 178 212 231 237 248 242 247 254 261 259 264 265 274 278 278 278
302 303 102 101 100 100 99 95 96 98 100 101 103 104 104 90 103 104 101 99 93 103 113 121 129 174 194 200 216 224 237 254 253 242 252 257 257 270 277 275 276 276 277
127 111 101 93 99 103 95 99 105 110 110 88 84 90 93 99 97 99 103 105 104 94 82 112 164 252 242 232 216 215 232 254 247 218 253 270 278 275 271 273 275 277 275
105 104 105 101 99 100 103 103 100 97 95 96 101 102 100 97 97 97 97 96 97 95 109 175 221 252 276 273 252 238 236 249 246 249 239 264 267 271 268 269 270 271 272
98 98 99 102 103 105 105 99 97 97 97 100 103 100 95 92 90 86 87 72 53 13 306 288 263 268 271 271 269 262 256 267 259 258 260 255 256 262 262 266 268 270 269
92 95 97 98 98 100 100 102 99 100 103 101 98 93 99 101 91 77 53 32 334 296 290 280 274 276 280 272 267 270 275 280 276 262 241 242 250 257 256 256 259 260 270